Time,TemperatureF,DewpointF,PressureIn,WindDirection,WindDirectionDegrees,WindSpeedMPH,WindSpeedGustMPH,Humidity,HourlyPrecipIn,Conditions,Clouds,dailyrainin,SoftwareType,DateUTC
2013-09-03 00:00:00,67.9,66.0,29.67,NNW,328,1.0,2.0,92,0.00,,,0.00,weatherlink.com 1.10,2013-09-03 07:00:00,
2013-09-03 00:15:00,67.7,66.0,29.67,NNW,328,1.0,1.0,93,0.00,,,0.00,weatherlink.com 1.10,2013-09-03 07:15:00,
2013-09-03 00:30:00,67.5,66.0,29.67,NNW,328,0.0,0.0,93,0.00,,,0.00,weatherlink.com 1.10,2013-09-03 07:30:00,
2013-09-03 00:45:00,67.0,65.0,29.67,NNW,328,1.0,2.0,93,0.00,,,0.00,weatherlink.com 1.10,2013-09-03 07:45:00,
2013-09-03 01:00:00,66.8,65.0,29.67,NNW,328,0.0,0.0,94,0.00,,,0.00,weatherlink.com 1.10,2013-09-03 08:00:00,
2013-09-03 01:15:00,66.5,65.0,29.68,NNW,328,0.0,1.0,94,0.00,,,0.00,weatherlink.com 1.10,2013-09-03 08:15:00,
2013-09-03 01:30:00,66.5,65.0,29.68,NNW,328,0.0,1.0,95,0.00,,,0.00,weatherlink.com 1.10,2013-09-03 08:30:00,
2013-09-03 01:45:00,66.1,65.0,29.68,NNW,328,0.0,0.0,95,0.00,,,0.00,weatherlink.com 1.10,2013-09-03 08:45:00,
2013-09-03 02:00:00,65.9,65.0,29.67,NNW,328,0.0,1.0,95,0.00,,,0.00,weatherlink.com 1.10,2013-09-03 09:00:00,
2013-09-03 02:15:00,65.6,64.0,29.68,NNW,328,0.0,0.0,95,0.00,,,0.00,weatherlink.com 1.10,2013-09-03 09:15:00,
2013-09-03 02:30:00,65.6,65.0,29.68,NNW,328,1.0,2.0,96,0.00,,,0.00,weatherlink.com 1.10,2013-09-03 09:30:00,
2013-09-03 02:45:00,65.5,64.0,29.68,NNW,329,0.0,1.0,96,0.00,,,0.00,weatherlink.com 1.10,2013-09-03 09:45:00,
2013-09-03 03:00:00,65.2,64.0,29.67,NNW,329,0.0,1.0,96,0.00,,,0.00,weatherlink.com 1.10,2013-09-03 10:00:00,
2013-09-03 03:15:00,65.0,64.0,29.67,NNW,329,0.0,1.0,96,0.00,,,0.00,weatherlink.com 1.10,2013-09-03 10:15:00,
2013-09-03 03:30:00,64.6,64.0,29.67,NNW,329,0.0,0.0,96,0.00,,,0.00,weatherlink.com 1.10,2013-09-03 10:30:00,
2013-09-03 03:45:00,64.4,63.0,29.68,NNW,329,1.0,3.0,96,0.00,,,0.00,weatherlink.com 1.10,2013-09-03 10:45:00,
2013-09-03 04:00:00,64.6,64.0,29.68,NW,308,0.0,1.0,97,0.00,,,0.00,weatherlink.com 1.10,2013-09-03 11:00:00,
2013-09-03 04:15:00,64.4,63.0,29.67,NW,308,0.0,0.0,96,0.00,,,0.00,weatherlink.com 1.10,2013-09-03 11:15:00,
2013-09-03 04:31:00,64.0,63.0,29.67,NW,308,0.0,1.0,96,0.00,,,0.00,weatherlink.com 1.10,2013-09-03 11:31:00,
2013-09-03 04:46:00,63.8,63.0,29.67,NW,308,0.0,0.0,96,0.00,,,0.00,weatherlink.com 1.10,2013-09-03 11:46:00,
2013-09-03 05:01:00,63.7,63.0,29.67,NW,308,0.0,1.0,97,0.00,,,0.00,weatherlink.com 1.10,2013-09-03 12:01:00,
2013-09-03 05:16:00,63.5,63.0,29.68,NW,308,0.0,0.0,97,0.00,,,0.00,weatherlink.com 1.10,2013-09-03 12:16:00,
2013-09-03 05:31:00,63.2,62.0,29.69,NW,308,0.0,0.0,97,0.00,,,0.00,weatherlink.com 1.10,2013-09-03 12:31:00,
2013-09-03 05:46:00,63.9,63.0,29.68,ENE,57,2.0,4.0,98,0.00,,,0.00,weatherlink.com 1.10,2013-09-03 12:46:00,
2013-09-03 06:01:00,64.2,64.0,29.68,SW,236,2.0,4.0,98,0.00,,,0.00,weatherlink.com 1.10,2013-09-03 13:01:00,
2013-09-03 06:16:00,64.5,64.0,29.70,South,171,0.0,2.0,97,0.00,,,0.00,weatherlink.com 1.10,2013-09-03 13:16:00,
2013-09-03 06:31:00,65.3,65.0,29.70,SSE,150,0.0,2.0,98,0.00,,,0.00,weatherlink.com 1.10,2013-09-03 13:31:00,
2013-09-03 06:46:00,65.9,65.0,29.70,NE,46,1.0,2.0,96,0.00,,,0.00,weatherlink.com 1.10,2013-09-03 13:46:00,
2013-09-03 07:01:00,66.4,65.0,29.71,SW,226,0.0,2.0,96,0.00,,,0.00,weatherlink.com 1.10,2013-09-03 14:01:00,
2013-09-03 07:16:00,68.0,67.0,29.71,West,281,0.0,2.0,95,0.00,,,0.00,weatherlink.com 1.10,2013-09-03 14:16:00,
2013-09-03 07:31:00,70.6,67.0,29.72,West,281,0.0,2.0,88,0.00,,,0.00,weatherlink.com 1.10,2013-09-03 14:31:00,
2013-09-03 07:46:00,73.9,67.0,29.72,NE,41,2.0,2.0,79,0.00,,,0.00,weatherlink.com 1.10,2013-09-03 14:46:00,
2013-09-03 08:01:00,75.3,67.0,29.72,NE,40,0.0,2.0,75,0.00,,,0.00,weatherlink.com 1.10,2013-09-03 15:01:00,
2013-09-03 08:16:00,76.5,68.0,29.72,East,88,0.0,2.0,76,0.00,,,0.00,weatherlink.com 1.10,2013-09-03 15:16:00,
2013-09-03 08:31:00,78.8,67.0,29.72,East,88,0.0,0.0,67,0.00,,,0.00,weatherlink.com 1.10,2013-09-03 15:31:00,
2013-09-03 08:46:00,80.7,66.0,29.71,NW,306,1.0,4.0,62,0.00,,,0.00,weatherlink.com 1.10,2013-09-03 15:46:00,
2013-09-03 09:01:00,81.5,65.0,29.71,WNW,297,1.0,4.0,58,0.00,,,0.00,weatherlink.com 1.10,2013-09-03 16:01:00,
2013-09-03 09:16:00,82.2,65.0,29.71,NNW,336,3.0,4.0,57,0.00,,,0.00,weatherlink.com 1.10,2013-09-03 16:16:00,
2013-09-03 09:31:00,83.2,66.0,29.71,WNW,296,2.0,4.0,57,0.00,,,0.00,weatherlink.com 1.10,2013-09-03 16:31:00,
2013-09-03 09:46:00,84.6,65.0,29.71,WNW,292,1.0,4.0,52,0.00,,,0.00,weatherlink.com 1.10,2013-09-03 16:46:00,
2013-09-03 10:01:00,85.6,63.0,29.72,NW,315,1.0,4.0,47,0.00,,,0.00,weatherlink.com 1.10,2013-09-03 17:01:00,
2013-09-03 10:16:00,86.3,64.0,29.71,NW,306,1.0,3.0,47,0.00,,,0.00,weatherlink.com 1.10,2013-09-03 17:16:00,
2013-09-03 10:31:00,87.9,64.0,29.71,NW,306,1.0,3.0,45,0.00,,,0.00,weatherlink.com 1.10,2013-09-03 17:31:00,
2013-09-03 10:46:00,88.5,63.0,29.71,NW,304,1.0,3.0,43,0.00,,,0.00,weatherlink.com 1.10,2013-09-03 17:46:00,
2013-09-03 11:02:00,89.8,62.0,29.70,West,264,2.0,2.0,40,0.00,,,0.00,weatherlink.com 1.10,2013-09-03 18:02:00,
2013-09-03 11:17:00,89.8,64.0,29.70,SSW,195,0.0,2.0,43,0.00,,,0.00,weatherlink.com 1.10,2013-09-03 18:17:00,
2013-09-03 11:32:00,90.4,62.0,29.69,SE,138,1.0,2.0,39,0.00,,,0.00,weatherlink.com 1.10,2013-09-03 18:32:00,
2013-09-03 11:47:00,91.0,64.0,29.68,South,169,1.0,3.0,40,0.00,,,0.00,weatherlink.com 1.10,2013-09-03 18:47:00,
2013-09-03 12:02:00,92.3,64.0,29.68,East,83,2.0,4.0,39,0.00,,,0.00,weatherlink.com 1.10,2013-09-03 19:02:00,
2013-09-03 12:17:00,92.2,62.0,29.67,ESE,108,1.0,5.0,36,0.00,,,0.00,weatherlink.com 1.10,2013-09-03 19:17:00,
2013-09-03 12:32:00,93.2,64.0,29.67,SSW,207,4.0,4.0,38,0.00,,,0.00,weatherlink.com 1.10,2013-09-03 19:32:00,
2013-09-03 12:47:00,94.0,61.0,29.66,NNE,19,1.0,3.0,33,0.00,,,0.00,weatherlink.com 1.10,2013-09-03 19:47:00,
2013-09-03 13:02:00,94.3,63.0,29.65,SE,143,0.0,3.0,35,0.00,,,0.00,weatherlink.com 1.10,2013-09-03 20:02:00,
2013-09-03 13:17:00,94.9,62.0,29.64,SE,142,1.0,3.0,34,0.00,,,0.00,weatherlink.com 1.10,2013-09-03 20:17:00,
2013-09-03 13:32:00,95.8,63.0,29.64,WSW,248,2.0,3.0,34,0.00,,,0.00,weatherlink.com 1.10,2013-09-03 20:32:00,
2013-09-03 13:47:00,96.3,62.0,29.63,NW,309,0.0,3.0,32,0.00,,,0.00,weatherlink.com 1.10,2013-09-03 20:47:00,
2013-09-03 14:02:00,96.7,61.0,29.62,WNW,292,2.0,6.0,30,0.00,,,0.00,weatherlink.com 1.10,2013-09-03 21:02:00,
2013-09-03 14:17:00,96.6,63.0,29.61,North,355,0.0,5.0,33,0.00,,,0.00,weatherlink.com 1.10,2013-09-03 21:17:00,
2013-09-03 14:32:00,97.0,61.0,29.60,NE,55,1.0,7.0,30,0.00,,,0.00,weatherlink.com 1.10,2013-09-03 21:32:00,
2013-09-03 14:47:00,96.7,61.0,29.60,WNW,294,3.0,6.0,30,0.00,,,0.00,weatherlink.com 1.10,2013-09-03 21:47:00,
2013-09-03 15:02:00,97.5,61.0,29.59,NW,304,1.0,6.0,30,0.00,,,0.00,weatherlink.com 1.10,2013-09-03 22:02:00,
2013-09-03 15:17:00,97.9,64.0,29.59,WNW,286,1.0,7.0,33,0.00,,,0.00,weatherlink.com 1.10,2013-09-03 22:17:00,
2013-09-03 15:32:00,97.7,59.0,29.58,West,271,0.0,6.0,28,0.00,,,0.00,weatherlink.com 1.10,2013-09-03 22:32:00,
2013-09-03 15:47:00,98.0,62.0,29.58,NW,311,1.0,8.0,30,0.00,,,0.00,weatherlink.com 1.10,2013-09-03 22:47:00,
2013-09-03 16:02:00,98.3,59.0,29.57,NNW,335,2.0,6.0,27,0.00,,,0.00,weatherlink.com 1.10,2013-09-03 23:02:00,
2013-09-03 16:17:00,97.8,63.0,29.58,NW,304,0.0,3.0,32,0.00,,,0.00,weatherlink.com 1.10,2013-09-03 23:17:00,
2013-09-03 16:32:00,96.2,64.0,29.58,WNW,292,1.0,3.0,35,0.00,,,0.00,weatherlink.com 1.10,2013-09-03 23:32:00,
2013-09-03 16:47:00,93.1,65.0,29.58,WNW,292,0.0,3.0,39,0.00,,,0.00,weatherlink.com 1.10,2013-09-03 23:47:00,
2013-09-03 17:02:00,90.4,67.0,29.58,WNW,292,0.0,1.0,46,0.00,,,0.00,weatherlink.com 1.10,2013-09-04 00:02:00,
2013-09-03 17:17:00,87.1,63.0,29.58,NW,313,11.0,11.0,45,0.00,,,0.00,weatherlink.com 1.10,2013-09-04 00:17:00,
2013-09-03 17:32:00,87.1,59.0,29.59,WSW,249,3.0,10.0,38,0.00,,,0.00,weatherlink.com 1.10,2013-09-04 00:32:00,
2013-09-03 17:47:00,85.9,61.0,29.60,SW,223,2.0,7.0,43,0.00,,,0.00,weatherlink.com 1.10,2013-09-04 00:47:00,
2013-09-03 18:02:00,85.3,60.0,29.61,ESE,123,1.0,8.0,43,0.00,,,0.00,weatherlink.com 1.10,2013-09-04 01:02:00,
2013-09-03 18:17:00,85.3,58.0,29.62,SE,144,2.0,14.0,40,0.00,,,0.00,weatherlink.com 1.10,2013-09-04 01:17:00,
2013-09-03 18:32:00,84.9,57.0,29.64,SE,129,4.0,14.0,39,0.00,,,0.00,weatherlink.com 1.10,2013-09-04 01:32:00,
2013-09-03 18:47:00,82.9,60.0,29.66,ESE,122,4.0,11.0,46,0.00,,,0.00,weatherlink.com 1.10,2013-09-04 01:47:00,
2013-09-03 19:02:00,80.1,60.0,29.66,South,186,1.0,9.0,51,0.00,,,0.00,weatherlink.com 1.10,2013-09-04 02:02:00,
2013-09-03 19:17:00,78.7,61.0,29.66,South,180,0.0,6.0,54,0.00,,,0.00,weatherlink.com 1.10,2013-09-04 02:17:00,
2013-09-03 19:32:00,77.8,61.0,29.66,SE,138,0.0,1.0,57,0.00,,,0.00,weatherlink.com 1.10,2013-09-04 02:32:00,
2013-09-03 19:47:00,76.9,61.0,29.66,SE,137,0.0,1.0,59,0.00,,,0.00,weatherlink.com 1.10,2013-09-04 02:47:00,
2013-09-03 20:02:00,76.6,63.0,29.66,SE,137,1.0,1.0,62,0.00,,,0.00,weatherlink.com 1.10,2013-09-04 03:02:00,
2013-09-03 20:17:00,75.9,63.0,29.66,NW,306,1.0,2.0,65,0.00,,,0.00,weatherlink.com 1.10,2013-09-04 03:17:00,
2013-09-03 20:32:00,75.7,62.0,29.66,NW,319,0.0,3.0,63,0.00,,,0.00,weatherlink.com 1.10,2013-09-04 03:32:00,
2013-09-03 20:47:00,75.6,63.0,29.66,WSW,253,0.0,3.0,65,0.00,,,0.00,weatherlink.com 1.10,2013-09-04 03:47:00,
2013-09-03 21:02:00,75.4,64.0,29.66,WSW,253,1.0,2.0,68,0.00,,,0.00,weatherlink.com 1.10,2013-09-04 04:02:00,
2013-09-03 21:18:00,74.9,64.0,29.67,WSW,253,1.0,2.0,68,0.00,,,0.00,weatherlink.com 1.10,2013-09-04 04:18:00,
2013-09-03 21:33:00,74.7,64.0,29.67,NNW,332,0.0,1.0,70,0.00,,,0.00,weatherlink.com 1.10,2013-09-04 04:33:00,
2013-09-03 21:48:00,73.9,65.0,29.68,NNW,332,0.0,1.0,73,0.00,,,0.00,weatherlink.com 1.10,2013-09-04 04:48:00,
2013-09-03 22:03:00,73.2,64.0,29.68,NNW,332,0.0,0.0,73,0.00,,,0.00,weatherlink.com 1.10,2013-09-04 05:03:00,
2013-09-03 22:18:00,72.7,65.0,29.68,NNW,332,0.0,2.0,77,0.00,,,0.00,weatherlink.com 1.10,2013-09-04 05:18:00,
2013-09-03 22:33:00,71.9,65.0,29.68,NNW,332,0.0,1.0,78,0.00,,,0.00,weatherlink.com 1.10,2013-09-04 05:33:00,
2013-09-03 22:48:00,71.3,65.0,29.69,NNW,332,0.0,1.0,81,0.00,,,0.00,weatherlink.com 1.10,2013-09-04 05:48:00,
2013-09-03 23:03:00,70.4,65.0,29.69,NNW,332,0.0,1.0,82,0.00,,,0.00,weatherlink.com 1.10,2013-09-04 06:03:00,
2013-09-03 23:18:00,69.5,65.0,29.69,NNW,332,0.0,1.0,84,0.00,,,0.00,weatherlink.com 1.10,2013-09-04 06:18:00,
2013-09-03 23:33:00,68.9,65.0,29.69,NNW,332,0.0,1.0,86,0.00,,,0.00,weatherlink.com 1.10,2013-09-04 06:33:00,
2013-09-03 23:48:00,68.5,65.0,29.69,NNW,332,0.0,1.0,87,0.00,,,0.00,weatherlink.com 1.10,2013-09-04 06:48:00,